Regional Weather Roundup
Issued by NWS

Home | Current Version | Previous Version | Graphics & Text | Print | Product List | Glossary On
Versions: 1 2 3 4 5 6 7 8 9 10 11 12 13 14 15 16 17 18 19 20 21 22 23 24 25 26 27 28 29 30 31 32 33 34 35 36 37 38 39 40 41 42 43 44 45 46 47 48 49 50
000
ASUS43 KTOP 280059
RWRKS

WEATHER ROUNDUP FOR KANSAS
NATIONAL WEATHER SERVICE GOODLAND KS
700 PM CST THU NOV 27 2014

NOTE:  "FAIR" INDICATES FEW OR NO CLOUDS BELOW 12,000 FEET WITH NO
SIGNIFICANT WEATHER AND/OR OBSTRUCTIONS TO VISIBILITY.

KSZ001>006-013>018-027>032-041>047-280200-
NORTHWEST KANSAS

CITY           SKY/WX    TMP DP  RH WIND       PRES   REMARKS
GOODLAND       CLOUDY    52  26  36 SW14      30.06F
HAYS           PTCLDY    39  19  45 S13       30.11F WCI  32
HILL CITY      CLEAR     42  23  46 SE7       30.08F
RUSSELL        PTCLDY    38  22  52 S14       30.13F WCI  30
$$

KSZ061>065-074>080-084>089-280200-
SOUTHWEST KANSAS

CITY           SKY/WX    TMP DP  RH WIND       PRES   REMARKS
DODGE CITY     MOCLDY    45  24  43 S16       30.14F
ELKHART          N/A     49  26  41 S10         N/A
GARDEN CITY    PTCLDY    47  30  51 S15       30.11F
GREAT BEND     MOCLDY    39  19  45 S15       30.17F WCI  31
LIBERAL        PTCLDY    45  27  49 S8        30.17S
$$

KSZ066>073-081>083-090>101-280200-
SOUTHEAST KANSAS

CITY           SKY/WX    TMP DP  RH WIND       PRES   REMARKS
CHANUTE        MOCLDY    33  23  66 SE7       30.34F
COFFEYVILLE    PTCLDY    36  24  62 S7        30.35F
HUTCHINSON     MOCLDY    38  19  46 S13       30.23F WCI  30
MEDICINE LODGE   N/A     43  24  47 S10G20    30.23F
NEWTON         PTCLDY    37  16  41 S13       30.26F WCI  29
PARSONS        MOCLDY    37  25  61 SE5       30.36F
WICHITA INTL   MOCLDY    38  19  46 S13       30.26F WCI  30
WICHITA JABRA  PTCLDY    38  18  44 S9        30.27F
WINFIELD       PTCLDY    36  21  54 SE8       30.31S
$$

KSZ007>012-019>026-033>040-048>060-102>105-280200-
NORTHEAST KANSAS

CITY           SKY/WX    TMP DP  RH WIND       PRES   REMARKS
CONCORDIA      CLEAR     36  17  46 S14       30.19F WCI  27
EMPORIA        CLEAR     32  19  58 SE10      30.29F WCI  24
LAWRENCE       PTCLDY    28  21  75 SE8       30.33F
MANHATTAN      CLEAR     33  18  53 SW3       30.27F
OLATHE IND     MOCLDY    32  22  66 SE9       30.33F
OLATHE EXE     MOCLDY    33  22  63 SE8       30.33F
SALINA         CLEAR     37  18  46 SE9       30.23F
TOPEKA BILLARD CLEAR     31  20  63 SE7       30.32F
TOPEKA FORBES  CLEAR     32  20  61 SE7       30.30F
$$



USA.gov is the U.S. government's official web portal to all federal, state and local government web resources and services.